sat.trackr.live / text

‹ back to catalog

WILDFIRE 2

NORAD 57767 · 2023-133L

PAYLOAD ACTIVE UNKNOWN

§ Identity

Operator
Country
US
Launch date
2023-09-02
Launch site
AFWTR
Launch vehicle
Mass (kg)
RCS (m²)

External: N2YO · Heavens-Above · Gunter

§ Orbital elements

Epoch: 2026-05-25T03:43:30.512064Z

Period
103.95 min
Inclination
80.9976°
Eccentricity
0.0006729
Mean motion
13.85266812 rev/d
Perigee alt
940.3 km
Apogee alt
950.2 km
Semi-major
7,323.4 km
B*
1.7420e-4
RAAN
29.5500°
Arg perigee
86.1469°
Mean anomaly
274.0457°
Rev number
13,781

§ Raw data

WILDFIRE 21 57767U 23133L   26145.15521426  .00000209  00000+0  17420-3 0  99952 57767  80.9976  29.5500 0006729  86.1469 274.0457 13.85266812137813

JSON: /api/v1/satellites/57767 · /tle

For live sub-satellite position, see the globe view (requires WebGL).

§ Visibility from observer

Set your observer location to see the next 7 days of passes ≥ 10°. The values pass through the URL so the page stays shareable.

No JS? Fill the form by hand. The geolocation button needs JavaScript.